Location: Roland
(31.1349°N, 85.4372°W)
Time: 22:56:00
(UTC+00:00)

Tiros 1 - Pass Details

Date: 26 April 2021
Orbit: 630 x 664 km, 48.4° (Epoch: 06 May)

Event Time Altitude Azimuth Distance (km) Brightness Sun altitude
Rises 20:38:15 0° 288° (WNW) 2,911 11.1 45.6°
Reaches altitude 10° 20:41:37 10° 263° (W) 1,999 10.7 44.9°
Maximum altitude 20:43:56 14° 232° (SW) 1,756 10.4 44.4°
Drops below altitude 10° 20:46:16 10° 202° (SSW) 1,997 10.1 43.9°
Sets 20:49:37 0° 176° (S) 2,904 10.6 43.2°
